Temp
72 73 74 71 67 70 66 64 61 59 60 59 58 58 57 57 57 57 59 60 60 57 57 57 57 55 53 53 51 50 49 48
73 71 71 69 67 68 65 62 60 60 59 58 58 56 56 57 58 60 60 60 61 57 56 56 55 53 52 52 50 49 48 47
68 68 67 69 67 65 64 63 62 62 62 61 61 59 58 58 59 59 60 60 60 59 56 54 54 53 51 50 49 47 46 46
67 69 64 67 67 64 63 62 62 64 64 64 60 59 57 56 56 56 59 60 60 58 57 55 54 52 50 49 48 47 44 45
69 67 64 65 62 64 66 64 65 65 65 65 61 57 57 56 56 56 57 59 60 60 58 55 53 51 50 49 51 47 45 43
67 66 66 64 64 64 65 65 67 65 65 67 61 57 57 56 56 56 56 57 58 59 55 52 51 50 49 48 47 47 46 43
68 67 65 63 65 65 64 62 63 65 67 63 60 59 57 57 57 56 57 54 52 53 53 50 49 49 48 47 46 46 45 44
65 64 64 63 60 60 61 62 63 65 65 60 58 57 56 55 53 51 51 53 51 50 52 50 48 48 48 47 45 44 44 42
64 65 64 63 63 62 63 65 66 61 60 59 58 57 54 53 52 51 51 52 53 52 51 50 48 48 47 46 44 43 43 41
62 62 63 63 65 61 63 63 62 60 59 56 55 54 53 52 52 53 53 52 55 51 50 50 49 47 48 46 42 42 42 41
62 62 61 61 61 61 60 60 60 59 57 55 55 53 53 53 54 54 54 53 53 50 50 48 47 47 46 44 42 42 42 40
61 61 62 62 61 60 60 60 58 56 57 55 52 52 53 55 55 54 53 52 53 50 51 48 47 46 45 43 42 43 41 39
62 62 62 62 61 60 59 59 58 60 58 55 52 53 56 56 55 54 53 52 51 51 49 48 48 46 45 43 42 41 40 39
63 62 63 62 61 61 59 58 57 60 58 56 55 55 55 54 54 54 52 51 48 49 48 47 46 45 44 44 42 41 41 40
64 64 64 66 64 63 60 58 59 57 55 53 53 53 54 54 53 53 49 49 48 49 47 47 46 45 46 45 44 39 38 38
62 62 59 59 58 58 59 59 57 58 56 54 52 53 53 53 53 51 49 49 49 48 47 46 45 44 45 42 41 38 37 37
63 60 59 60 58 58 58 59 57 55 54 53 53 52 53 50 49 49 48 48 47 46 46 46 44 46 39 40 38 35 36 35
62 63 60 60 59 58 54 55 55 54 53 53 53 51 50 50 50 49 48 46 46 45 44 44 43 39 38 38 37 35 34 33
60 59 60 57 55 54 54 54 53 52 51 51 50 49 49 47 47 46 46 45 44 43 42 42 42 40 37 37 36 32 31 31
MSLP
1013.38 1013.94 1014.60 1015.57 1016.31 1017.15 1018.25 1019.05 1019.47 1020.05 1020.47 1020.90 1021.81 1022.41 1022.84 1022.85 1022.90 1023.07 1023.20 1023.09 1023.21 1023.40 1023.56 1023.67 1023.99 1024.69 1025.03 1025.09 1025.54 1025.73 1025.85 1025.99
1013.25 1013.66 1014.61 1015.57 1016.20 1016.94 1017.87 1018.83 1019.76 1020.32 1020.93 1021.74 1022.48 1022.56 1022.61 1022.91 1022.70 1022.61 1022.64 1022.90 1023.12 1023.39 1023.68 1023.98 1024.42 1024.87 1025.16 1025.20 1025.57 1025.73 1025.89 1025.92
1013.34 1013.87 1014.84 1015.33 1016.23 1017.18 1017.86 1018.86 1019.69 1020.27 1020.55 1020.82 1021.06 1021.67 1022.16 1022.20 1022.03 1022.27 1022.50 1022.89 1023.31 1023.48 1023.94 1024.37 1024.62 1024.94 1025.18 1025.38 1025.52 1025.82 1025.97 1025.87
1013.28 1013.76 1014.75 1015.52 1016.24 1016.94 1017.86 1018.49 1018.99 1019.46 1019.83 1020.11 1020.65 1021.20 1021.75 1022.22 1022.26 1022.46 1022.70 1023.05 1023.22 1023.41 1023.69 1024.10 1024.44 1024.75 1025.06 1025.16 1025.28 1025.59 1025.92 1025.80
1012.98 1013.68 1014.72 1015.47 1016.27 1016.89 1017.31 1017.95 1018.40 1018.87 1019.24 1019.67 1020.30 1020.97 1021.52 1021.83 1021.93 1022.42 1022.77 1022.87 1023.05 1023.22 1023.60 1023.87 1024.16 1024.56 1024.97 1025.05 1024.97 1025.30 1025.50 1025.80
1012.60 1013.48 1014.06 1014.99 1015.88 1016.75 1017.09 1017.87 1017.94 1018.26 1018.82 1019.13 1019.78 1020.60 1020.96 1021.28 1021.91 1022.46 1022.78 1022.75 1022.90 1023.17 1023.70 1024.16 1024.56 1024.76 1025.07 1025.15 1025.19 1025.24 1025.40 1025.77
1012.17 1013.15 1014.08 1014.88 1015.52 1016.29 1016.80 1017.25 1017.66 1017.98 1018.33 1018.72 1019.28 1020.19 1020.92 1021.37 1021.90 1022.43 1022.70 1023.05 1023.67 1023.75 1024.03 1024.31 1024.60 1024.84 1025.00 1025.05 1025.05 1025.22 1025.28 1025.30
1012.39 1013.36 1014.11 1014.78 1015.33 1015.71 1016.24 1017.07 1017.53 1017.68 1018.14 1018.76 1019.19 1019.89 1020.36 1021.04 1021.68 1022.32 1022.75 1023.14 1023.66 1023.89 1024.00 1024.34 1024.57 1024.70 1024.89 1025.07 1025.13 1025.18 1025.01 1025.02
1012.16 1012.77 1013.58 1014.25 1014.90 1015.55 1016.11 1016.79 1017.22 1017.53 1018.10 1018.77 1019.34 1019.96 1020.51 1021.08 1021.51 1021.88 1022.31 1022.61 1022.87 1023.14 1023.76 1023.98 1024.32 1024.68 1024.94 1025.05 1025.02 1024.94 1024.81 1024.98
1012.08 1012.72 1013.26 1014.04 1014.74 1015.55 1015.90 1016.55 1017.11 1017.59 1018.17 1018.84 1019.53 1020.11 1020.69 1021.25 1021.66 1022.02 1022.30 1022.91 1023.05 1023.36 1023.62 1023.98 1024.35 1024.70 1024.84 1024.91 1025.22 1025.17 1025.11 1025.09
1012.32 1012.91 1013.49 1014.13 1014.70 1015.41 1015.99 1016.66 1017.12 1017.68 1018.34 1019.02 1019.72 1020.31 1020.85 1021.37 1021.77 1022.28 1023.04 1022.90 1023.73 1023.76 1023.82 1023.91 1024.33 1024.61 1024.81 1024.94 1025.16 1025.18 1025.24 1025.15
1012.27 1012.83 1013.31 1013.87 1014.41 1015.10 1015.87 1016.67 1017.34 1017.98 1018.59 1019.30 1020.01 1020.62 1021.12 1021.61 1022.14 1022.35 1022.91 1023.39 1023.49 1023.82 1024.01 1024.08 1024.28 1024.56 1024.73 1024.86 1024.98 1025.04 1025.17 1025.22
1011.63 1012.25 1012.93 1013.60 1014.23 1014.86 1015.53 1016.29 1017.11 1017.84 1018.58 1019.35 1020.11 1020.64 1021.15 1021.66 1022.14 1022.62 1022.81 1023.03 1023.14 1023.50 1023.92 1024.00 1024.20 1024.39 1024.18 1024.38 1024.60 1024.76 1024.98 1025.26
1010.96 1011.61 1012.24 1012.97 1013.75 1014.35 1014.99 1015.83 1016.71 1017.48 1018.34 1019.19 1019.95 1020.55 1021.08 1021.77 1022.08 1022.75 1022.91 1022.95 1023.26 1023.64 1023.89 1024.00 1024.08 1023.99 1023.83 1023.95 1024.12 1024.46 1024.68 1024.87
1010.18 1010.77 1011.33 1011.91 1012.78 1013.66 1014.65 1015.22 1016.09 1017.23 1018.26 1019.10 1019.96 1020.55 1021.22 1021.52 1022.45 1022.80 1023.17 1023.10 1023.40 1023.60 1023.73 1023.96 1024.01 1023.93 1023.72 1023.67 1023.75 1024.02 1024.30 1024.56
1010.06 1010.35 1011.34 1012.11 1012.91 1013.88 1014.74 1015.44 1016.20 1017.05 1018.03 1019.11 1019.95 1020.64 1021.18 1021.66 1022.16 1022.90 1022.85 1022.99 1023.16 1023.23 1023.42 1023.58 1023.62 1023.76 1023.66 1023.64 1023.66 1023.87 1024.14 1024.23
1010.34 1010.66 1011.40 1012.17 1012.86 1013.82 1014.53 1015.41 1016.22 1016.99 1017.95 1018.92 1019.61 1020.20 1020.93 1022.07 1022.59 1022.55 1022.85 1022.89 1022.92 1023.05 1023.12 1023.25 1023.35 1023.53 1024.00 1023.97 1023.92 1023.98 1024.19 1024.20
1010.90 1011.33 1011.80 1012.22 1012.84 1013.41 1014.83 1015.82 1016.43 1017.34 1018.19 1018.81 1019.49 1020.26 1021.14 1021.59 1022.24 1022.73 1022.77 1022.93 1022.95 1022.91 1022.75 1022.67 1022.77 1022.97 1023.25 1023.61 1023.80 1024.06 1024.09 1024.28
1011.69 1011.82 1012.09 1012.82 1013.36 1014.28 1015.38 1016.37 1017.31 1018.20 1019.07 1019.75 1020.33 1021.10 1021.58 1022.24 1022.42 1022.59 1022.96 1022.89 1022.72 1022.74 1022.64 1022.55 1022.39 1022.57 1022.90 1023.15 1023.53 1023.76 1023.76 1024.04
Wind_Speed
14 17 16 15 13 15 14 10 9 7 7 6 4 3 3 4 4 5 7 5 6 5 5 4 5 4 3 3 3 3 2 1
13 11 16 16 13 15 16 15 8 7 4 5 4 4 4 4 4 7 6 5 5 5 4 4 4 5 3 2 2 3 2 3
8 9 10 18 17 14 15 16 13 9 7 4 4 5 3 4 4 4 7 6 5 6 6 5 5 4 5 3 3 1 1 1
8 7 12 15 17 15 14 14 14 10 8 4 4 3 3 2 3 4 4 6 6 7 6 5 4 4 2 0 1 2 2 2
13 9 10 13 9 13 15 14 12 10 8 7 10 5 6 4 4 4 4 7 6 5 6 6 5 3 1 1 1 2 3 2
15 12 10 14 13 12 11 11 12 8 8 11 8 5 3 4 5 7 5 5 6 3 6 7 6 4 3 4 4 4 1 1
15 10 13 11 11 11 11 10 6 7 8 9 10 10 8 8 7 6 3 3 5 6 6 6 5 4 3 3 3 3 3 3
14 15 12 13 11 10 8 9 7 8 8 8 8 8 8 9 7 5 6 4 4 5 5 5 3 4 6 5 4 4 4 3
15 15 12 12 9 8 8 11 11 8 8 8 8 8 5 5 6 5 5 4 4 6 5 5 5 5 3 4 3 3 4 3
9 9 10 11 11 8 9 10 9 9 8 7 7 7 8 6 6 5 4 4 4 6 6 5 4 3 3 5 4 4 3 1
8 9 9 7 8 7 7 7 9 8 9 7 7 7 7 6 5 7 4 6 3 5 5 4 2 3 4 4 3 4 5 3
9 8 11 10 9 8 7 6 8 8 10 7 8 7 5 6 4 5 5 5 4 4 2 1 2 3 1 2 2 4 4 3
11 11 12 13 12 11 9 8 10 10 9 9 8 7 6 5 4 5 6 6 5 4 2 1 3 2 2 2 2 2 2 3
11 11 14 14 12 13 11 9 9 10 10 11 8 6 6 5 3 4 5 5 5 3 1 2 5 4 2 4 3 2 2 1
13 13 14 16 13 12 11 10 12 11 11 9 7 6 6 4 2 4 4 4 4 1 2 4 5 4 4 3 3 4 4 3
7 11 8 9 10 8 7 7 10 13 11 10 7 7 6 5 5 5 4 4 2 2 4 6 4 5 3 5 5 5 3 1
8 8 8 9 10 10 9 10 12 13 11 10 7 7 5 4 4 3 2 2 3 4 4 4 5 3 7 8 6 4 2 0
7 5 7 7 10 9 9 11 11 9 9 7 7 8 6 5 4 2 3 4 5 6 6 5 5 6 12 11 9 4 3 3
8 6 4 7 8 13 13 12 10 10 10 10 10 8 7 5 5 6 6 5 5 5 5 6 5 6 14 13 10 5 3 4
Wind_Direction
153 146 149 144 144 148 130 127 121 99 106 97 81 110 154 160 158 162 162 144 148 135 126 109 79 92 79 68 88 39 89 57
162 156 144 147 145 150 143 140 126 134 123 144 177 174 163 177 173 157 148 150 115 104 85 86 81 94 94 76 115 69 347 13
136 138 135 154 159 145 145 152 161 172 171 190 159 150 180 169 156 143 135 134 120 106 103 94 82 74 59 61 76 2 333 17
155 154 140 153 163 149 154 156 165 180 192 154 122 127 94 107 138 113 151 135 124 126 128 127 113 107 91 74 274 132 207 292
163 164 140 160 150 154 156 159 169 190 195 157 154 162 166 180 154 139 149 135 139 141 154 154 143 124 111 289 182 223 160 237
168 169 156 149 140 156 155 176 185 183 186 163 163 157 160 145 129 138 153 165 166 120 74 80 72 67 39 34 12 360 54 135
163 151 130 139 143 152 170 172 185 181 163 165 157 147 142 130 140 157 151 105 95 91 90 88 86 68 33 358 347 319 269 234
142 144 151 160 171 176 164 167 183 159 136 124 123 139 141 143 144 134 133 134 118 110 90 73 57 37 21 7 351 331 302 258
156 166 164 160 162 180 178 173 162 143 133 130 122 125 118 112 126 126 117 123 126 108 102 75 51 35 12 341 320 308 329 359
141 134 145 150 148 161 152 148 149 143 136 121 117 109 109 116 105 106 106 105 106 87 83 69 40 4 321 322 3 9 23 357
147 141 141 137 141 145 137 149 153 145 126 128 125 122 115 103 110 107 101 102 71 78 67 73 28 321 340 82 30 350 359 351
166 159 159 157 152 154 162 151 140 130 132 126 119 116 106 120 110 110 112 128 124 97 81 57 320 302 80 78 28 11 12 17
170 167 164 166 166 165 165 149 140 144 135 127 123 127 130 143 160 146 161 160 142 138 159 357 290 192 158 54 80 80 36 353
176 172 172 169 167 167 161 145 149 147 135 130 132 139 148 131 76 283 179 156 136 117 80 281 266 192 131 125 124 139 103 335
188 184 182 181 172 156 158 158 151 136 132 134 135 120 129 81 167 86 185 128 115 114 261 272 270 192 186 167 127 108 84 69
216 188 149 150 153 153 153 151 137 139 128 119 125 106 82 53 21 205 122 116 201 251 261 263 258 215 215 162 147 136 123 36
69 117 146 158 155 161 165 149 132 126 127 119 119 93 76 134 145 91 219 261 290 264 249 267 278 209 172 159 153 160 169 199
49 98 161 170 168 151 125 124 123 112 113 108 100 106 96 62 65 350 6 323 268 253 253 257 263 187 182 173 167 176 180 272
22 32 49 79 102 105 116 113 99 94 86 73 62 40 59 62 35 5 315 274 280 264 254 256 260 196 188 178 173 173 195 257